Location: Maiden
(35.5760°N, 81.2120°W)
Time: 02:30:47
(UTC-05:00)

N. Korean satellite - Visible Passes

Search period start: 21 February 2018 00:00
Search period end: 03 March 2018 00:00
Orbit: 459 x 514 km, 97.2° (Epoch: 20 February)

Date Brightness Start Highest point End Pass type
(mag) Time Alt. Az. Time Alt. Az. Time Alt. Az.
21 Feb 8.2 18:46:34 10° SSW 18:49:46 37° W 18:53:02 10° NNW visible
22 Feb 9.9 06:16:48 10° NE 06:19:33 20° E 06:22:19 10° SE visible
24 Feb 9.7 19:09:36 10° SW 19:12:05 19° W 19:14:36 10° NW visible
25 Feb 8.2 18:45:00 10° S 18:48:14 39° W 18:51:33 10° NNW visible
26 Feb 10.0 06:15:19 10° NE 06:18:03 19° E 06:20:47 10° SE visible
28 Feb 9.7 19:07:57 10° SW 19:10:30 19° W 19:13:08 10° NW visible
01 Mar 8.1 18:43:22 10° S 18:46:39 41° W 18:50:02 10° NNW visible
02 Mar 10.0 06:13:49 10° NE 06:16:30 19° E 06:19:11 10° SE visible
